Satellite-Ground Cal/Val Region Overpasses Predictions

Prediction of Satellite NPP Overpassing Cal/Val Region: PacNW

Region Location: (Latitude: 10.00, Longitude: 139.50) to (Latitude: 22.70, Longitude: 165.60).

Table of predicted overpasses for the next 14.0 days since TLE Epoch: 5/23/2014
Interval Starting Time Starting Location Ending Time Ending Location
1 05/24/2014 03:36:13 ( 10.01, 147.05) 05/24/2014 03:39:49 ( 22.68, 144.02)
2 05/24/2014 16:08:06 ( 22.68, 144.31) 05/24/2014 16:11:41 ( 10.06, 141.30)
3 05/25/2014 03:17:12 ( 10.01, 151.80) 05/25/2014 03:20:48 ( 22.69, 148.77)
4 05/25/2014 15:49:06 ( 22.67, 149.07) 05/25/2014 15:52:41 ( 10.05, 146.05)
5 05/26/2014 02:58:12 ( 10.02, 156.56) 05/26/2014 03:01:48 ( 22.69, 153.53)
6 05/26/2014 15:30:06 ( 22.67, 153.83) 05/26/2014 15:33:41 ( 10.05, 150.81)
7 05/27/2014 02:39:11 ( 10.02, 161.32) 05/27/2014 02:42:47 ( 22.70, 158.29)
8 05/27/2014 15:11:05 ( 22.66, 158.59) 05/27/2014 15:14:40 ( 10.04, 155.57)
9 05/28/2014 02:20:47 ( 12.14, 165.59) 05/28/2014 02:23:46 ( 22.65, 163.06)
10 05/28/2014 04:01:41 ( 10.03, 140.70) 05/28/2014 04:03:08 ( 15.14, 139.51)
11 05/28/2014 14:52:05 ( 22.65, 163.34) 05/28/2014 14:55:40 ( 10.03, 160.33)
12 05/29/2014 03:42:40 ( 10.04, 145.46) 05/29/2014 03:46:15 ( 22.66, 142.44)
13 05/29/2014 14:36:01 ( 12.26, 165.60) 05/29/2014 14:36:39 ( 10.03, 165.08)
14 05/29/2014 16:14:34 ( 22.65, 142.73) 05/29/2014 16:18:09 ( 10.03, 139.71)
15 05/30/2014 03:23:40 ( 10.04, 150.22) 05/30/2014 03:27:15 ( 22.66, 147.20)
16 05/30/2014 15:55:33 ( 22.70, 147.50) 05/30/2014 15:59:09 ( 10.02, 144.47)
17 05/31/2014 03:04:39 ( 10.05, 154.97) 05/31/2014 03:08:14 ( 22.67, 151.96)
18 05/31/2014 15:36:32 ( 22.69, 152.25) 05/31/2014 15:40:08 ( 10.01, 149.22)
19 06/01/2014 02:45:38 ( 10.00, 159.74) 06/01/2014 02:49:14 ( 22.68, 156.71)
20 06/01/2014 15:17:32 ( 22.68, 157.01) 06/01/2014 15:21:07 ( 10.06, 153.99)
21 06/02/2014 02:26:38 ( 10.01, 164.50) 06/02/2014 02:30:14 ( 22.69, 161.47)
22 06/02/2014 14:58:31 ( 22.67, 161.77) 06/02/2014 15:02:06 ( 10.05, 158.75)
23
